Location: Arroyo Grande
(40.2671°N, 4.2512°W)
Time: 18:31:33
(UTC+00:00)

Cosmos 2278 - Pass Details

Date: 03 February 2023
Orbit: 838 x 853 km, 71.1° (Epoch: 22 March)

Event Time Altitude Azimuth Distance (km) Brightness Sun altitude
Rises 17:57:36 0° 212° (SSW) 3,383 7.7 -4.4°
Reaches altitude 10° 18:00:04 10° 217° (SW) 2,454 7.1 -4.9°
Maximum altitude 18:05:37 59° 296° (WNW) 971 4.4 -5.9°
Drops below altitude 10° 18:11:15 10° 16° (NNE) 2,480 5.8 -6.9°
Sets 18:13:45 0° 20° (NNE) 3,421 6.5 -7.4°
